Back to catalog

STARLINK-34281

AliveCommunicationsVLEO
NORAD 64260·PAYLOAD·🇺🇸 United States

Launched Jun 4, 2025 from Vandenberg Space Force Base

Loading…

Next Passes (next 24 hours)

TLE

FreshSource: CelesTrak SupGP

Epoch: Sep 14, 2026, 20:57 UTC

1 64260C 25120E   26257.87340278 -.00016954  00000+0 -50109-3 0  2570
2 64260  53.1592 312.3316 0001140  82.1015 155.5867 15.34388783    15

Track STARLINK-34281 in real time with AllMySat

Download on the App Store